Location: LDNL
(36.4545°S, 141.6685°E)
Time: 03:44:56
(UTC+11:00)

Vanguard 2 - Pass Details

Date: 11 August 2022
Orbit: 552 x 2934 km, 32.9° (Epoch: 06 October)

Event Time Altitude Azimuth Distance (km) Brightness Sun altitude
Rises 14:34:06 0° 340° (NNW) 6,669 13.4 31.5°
Reaches altitude 10° 14:39:58 10° 353° (N) 5,748 13.1 30.9°
Maximum altitude 14:52:20 24° 37° (NE) 4,523 11.8 29.4°
Drops below altitude 10° 15:03:11 10° 82° (E) 5,043 11.5 28.0°
Sets 15:07:45 0° 95° (E) 5,715 11.6 27.4°
